Regional Weather Roundup
Issued by NWS Midland/Odessa, TX

Home | Current Version | Previous Version | Text Only | Print | Product List | Glossary On
Versions: 1 2 3 4 5 6 7 8 9 10 11 12 13 14 15 16 17 18 19 20 21 22 23 24 25 26 27 28 29 30 31 32 33 34 35 36 37 38 39 40 41 42 43 44 45 46 47 48 49 50
000
ASUS44 KMAF 221310
RWRMAF
MIDLAND AREA WEATHER ROUNDUP
NATIONAL WEATHER SERVICE MIDLAND TX
700 AM CST SUN JAN 22 2017

...IN SOUTHWEST TEXAS AND SOUTHEAST NEW MEXICO...

CITY           SKY/WX    TMP DP  RH WIND       PRES   REMARKS
ALPINE         CLEAR     41  17  37 W21G38    30.03R WCI  32
ANDREWS        FAIR      42  23  47 NW17G23   29.87R WCI  34
ARTESIA        CLEAR     41  21  45 N7G15     29.94R WCI  36
BIG SPRING     PTCLDY    45  27  49 W15G23    29.84R WCI  38
CARLSBAD       CLEAR     43  20  39 NW18      29.93R WCI  35
DRYDEN           N/A     49  21  33 W16G23    29.91R
FORT STOCKTON  CLEAR     44  24  45 W23G33    29.93R WCI  35
GUAD PASS      CLEAR     31  22  69 W30G44    29.97R WCI  16
HOBBS          CLEAR     39  23  52 W18       29.89  WCI  30
MARFA          CLEAR     34  22  61 NW7       30.07R WCI  28
MIDLAND AIRPK  CLEAR     47  24  40 W22       29.86R WCI  39
MIDLAND INTL   CLEAR     45  23  42 W18G26    29.86R WCI  37
ODESSA         CLEAR     44  22  41 NW18      29.87R WCI  36
PECOS          NOT AVBL
PRESIDIO       FAIR      47  25  42 NW7       30.09R
SEMINOLE       CLEAR     40  24  53 NW13      29.89R WCI  33
SNYDER         CLEAR     45  35  67 NW17G25   29.75R WCI  38
WINK           CLEAR     42  23  46 W17       29.90R WCI  34
$$
...OTHER STATIONS IN TEXAS...

CITY           SKY/WX    TMP DP  RH WIND       PRES   REMARKS
ABILENE        CLOUDY    49  38  65 NW25G33   29.66R
AMARILLO       CLEAR     35  33  92 NW16      29.79R WCI  25
AUSTIN         PTCLDY    60  27  28 W21G30    29.59R
BROWNSVILLE    CLEAR     59  38  45 W8        29.81R
CORPUS CHRISTI CLEAR     63  27  25 NW25G32   29.75R
DALLAS FTW     PTCLDY    53  36  52 W15       29.42R
DEL RIO        CLEAR     57  24  28 W22G30    29.84R
EL PASO        CLEAR     39  25  57 W13       30.08R WCI  31
HOUSTON INT    CLEAR     57  36  45 W12G17    29.56S
LUBBOCK        PTCLDY    39  31  72 NW17      29.79R WCI  30
SAN ANGELO     CLEAR     50  27  40 W26G38    29.76R
SAN ANTONIO    CLEAR     59  24  26 W30G41    29.68R
WACO           PTCLDY    55  33  43 W18G24    29.48R
WICHITA FALLS  NOT AVBL
$$
...OTHER LOCATIONS IN NEW MEXICO...

CITY           SKY/WX    TMP DP  RH WIND       PRES   REMARKS
ALAMAGORDO     CLOUDY    36  23  60 N12       30.07S WCI  27
ALBUQUERQUE    PTCLDY    31  21  66 S7        30.07R WCI  24
CANNON AFB     CLEAR     33  28  82 NW8       29.85R WCI  26
CLOVIS         CLEAR     30  21  69 W7        29.85R WCI  23
HOLLOMAN AFB   CLEAR     31  25  77 NE8       30.10R WCI  23
ROSWELL        CLEAR     43  19  38 NW18G31   29.89R WCI  35
RUIDOSO        CLOUDY    27  16  63 N13G20    29.99R WCI  16
SANTA FE       CLEAR     27  19  72 CALM      29.99R
TRUTH OR CONSE CLEAR     34  19  54 NW18      30.06R WCI  23
TUCUMCARI      CLEAR     30  24  78 W8        29.86R WCI  22
$$



USA.gov is the U.S. government's official web portal to all federal, state and local government web resources and services.